SNAP-3 ALICE

Last updated on Sat Dec 13 2025 00:03:49 GMT+0000 (Coordinated Universal Time)

1 40970U 15058G 25346.27004307 .00053624 00000+0 15712-2 0 9999 2 40970 64.7613 15.7029 0044405 120.3505 240.2031 15.33903649 88007
UTC large
Height (km)
Speed (km/s)
/
Latitude / Longitude
Inclination (degrees)
Orbital Period (minutes)
Azimuth
Elevation
Range (km)
Doppler Factor

Next 0 passes for location: London (51.5072 / 0.1276)

Sorry there are no passes over London.